Terug naar catalogus

STARLINK-34488

ActiefCommunicatieVLEO
NORAD 64604·PAYLOAD·🇺🇸 United States

Gelanceerd Jun 25, 2025 vanaf Cape Canaveral Space Force Station

Loading…

Volgende Passages (komende 24 uur)

TLE

VersSource: CelesTrak SupGP

Epoch: Sep 15, 2026, 03:06 UTC

1 64604C 25137L   26258.12965278 -.00037426  00000+0 -11058-2 0  2589
2 64604  53.1597 174.5786 0001305  90.1141 115.1858 15.34406797    11

Volg STARLINK-34488 in realtime met AllMySat

Download on the App Store